Regional Weather Roundup
Issued by NWS

Home | Current Version | Previous Version | Text Only | Print | Product List | Glossary On
Versions: 1 2 3 4 5 6 7 8 9 10 11 12 13 14 15 16 17 18 19 20 21 22 23 24 25 26 27 28 29 30 31 32 33 34 35 36 37 38 39 40 41 42 43 44 45 46 47 48 49 50
000
ASUS43 KDTX 011901
RWRMI
MICHIGAN HOURLY REGIONAL WEATHER ROUNDUP
NATIONAL WEATHER SERVICE DETROIT/PONTIAC MI
200 PM EST SUN FEB 01 2015

NOTE: "FAIR" INDICATES FEW OR NO CLOUDS BELOW 12,000 FEET WITH NO
SIGNIFICANT WEATHER AND/OR OBSTRUCTION TO VISIBILITY.

MIZ047>049-052>055-059>063-066>070-074>076-081>083-012000-
SOUTHEAST LOWER MICHIGAN

CITY           SKY/WX    TMP DP  RH WIND       PRES   REMARKS
ADRIAN         SNOW      23  21  92 E21       29.89F VSB 1/4 WCI   8
ALMA           LGT SNOW  15  12  89 NE18G26   30.05F WCI  -2
ANN ARBOR      SNOW      22  19  89 NE15G22   29.92F VSB 1/2 WCI   9
BAD AXE        LGT SNOW  15  11  86 NE12G17   30.10F WCI   1
CARO           LGT SNOW  15  11  82 NE6       30.07F WCI   7
DETROIT CITY   SNOW      23  18  81 NE15      29.98F VSB 1/2 WCI  10
DETROIT        SNOW      23  19  85 NE15      29.95F VSB 1/2 WCI  10
FLINT          SNOW      19  13  77 NE21G28   30.01F VSB 1/2 WCI   3
GROSSE ILE     LGT SNOW  23  19  86 NE17G26   29.94F VSB 3/4 WCI   9
HILLSDALE      SNOW      23  22  93 E14G22    29.84F VSB 1/2 WCI  11
HOWELL         LGT SNOW  18  16  89 NE12G17   29.95F WCI   6

CITY           SKY/WX    TMP DP  RH WIND       PRES   REMARKS
JACKSON        HVY SNOW  21  18  88 NE13G18   29.90F VSB 1/4 WCI   9
LAMBERTVILLE   SNOW      28  23  80 NE10G18   29.90F VSB 1/2 WCI  19
LANSING        SNOW      17  13  84 NE21G29   29.98F VSB 1/2 WCI   0
LAPEER         LGT SNOW  17  13  85 NE13G18   30.03F WCI   3
MASON          LGT SNOW  18  15  86 NE16      29.94F VSB 3/4 WCI   3
MONROE         SNOW      23  21  93 NE13G22   29.91F VSB 1/2 WCI  11
MT. CLEMENS    LGT SNOW  21  18  86 NE14      29.97F VSB 3/4 WCI   8
PONTIAC        SNOW      19  15  84 NE15      29.96F VSB 1/2 WCI   5
PORT HOPE        N/A     16   9  74 NE17G25   30.12F WCI   0
PORT HURON     LGT SNOW  19  16  86 NE14      30.04F WCI   6
TRI CITIES     SNOW      17  11  77 NE24G32   30.08F VSB 1/2 WCI  -1
TROY           SNOW      23  19  83 NE12G21   30.00F VSB 1/2 WCI  11
SAGINAW HB     CLOUDY    18  14  86 NE23G29   30.07F FOG     WCI   0
$$
MIZ043>046-050>051-056>058-064>065-071>073-077>080-012000-
SOUTHWEST LOWER MICHIGAN

CITY           SKY/WX    TMP DP  RH WIND       PRES   REMARKS
BATTLE CREEK   HVY SNOW  22  17  81 NE18G28   29.87F VSB 1/4 WCI   7
BENTON HARBOR  SNOW      21  19  92 E18G29    29.82F VSB 1/4 WCI   6
BIG RAPIDS     LGT SNOW  13  10  87 NE10G16   30.03F WCI   0
COLDWATER      SNOW      23  21  93 E17G23    29.83F VSB 1/4 WCI   9
FREMONT        LGT SNOW  15  10  81 NE17G25   30.01F VSB 1   WCI  -1
HOLLAND        SNOW      19  13  77 E18G30    29.92F VSB 1/2 WCI   4
GRAND RAPIDS   SNOW      16  12  84 NE25G37   29.94F VSB 1/2 WCI  -3
IONIA          LGT SNOW  17  13  86 NE16G26   29.97F VSB 1   WCI   1
KALAMAZOO      SNOW      22  17  81 NE16G25   29.86F VSB 1/2 WCI   8
LUDINGTON      LGT SNOW  16  10  77 NE15G23   30.07F WCI   1
MARSHALL       SNOW      20  18  89 NE12G20   29.87F VSB 1/2 WCI   8
MOUNT PLEASANT LGT SNOW  15  10  82 NE15G22   30.06F VSB 1   WCI   0
MUSKEGON       HVY SNOW  17  12  80 NE21G29   29.97F VSB 1/4 WCI   0
SOUTH HAVEN    LGT SNOW  21  17  84 E16G25    29.85F WCI   7
$$
MIZ016>042-012000-
NORTHERN LOWER MICHIGAN

CITY           SKY/WX    TMP DP  RH WIND       PRES   REMARKS
ALPENA         LGT SNOW   7   2  80 NE14      30.24F WCI -10
BEAVER ISLAND  CLOUDY    -1  -8  70 NE5       30.27F WCI -11
BELLAIRE       CLOUDY    10  -1  60 NE14      30.21F WCI  -6
CADILLAC       LGT SNOW   9   4  78 NE14      30.05F WCI  -7
CHARLEVOIX     CLOUDY     7   0  74 NE15      30.25F WCI -11
FRANKFORT      CLOUDY    12   4  69 E9G17     30.14F WCI   0
GAYLORD        CLOUDY     5  -1  76 NE8       30.14F WCI  -8
GRAYLING       CLOUDY     8   1  71 NE14      30.14F WCI  -8
HARBOR SPRINGS CLOUDY     6  -1  70 NE9       30.23F WCI  -7
HOUGHTON LAKE  LGT SNOW  11   3  70 NE17G23   30.10F WCI  -6
MANISTEE       CLOUDY    12   5  73 NE15G22   30.10F WCI  -4
OSCODA         LGT SNOW  13   8  80 NE15G22   30.18F WCI  -3
PELLSTON       CLOUDY     6  -1  73 E13       30.26F WCI -10
TRAVERSE CITY  CLOUDY    12   2  64 NE13      30.17F WCI  -3
$$
MIZ007>008-015-012000-
EASTERN UPPER MICHIGAN

CITY           SKY/WX    TMP DP  RH WIND       PRES   REMARKS
KINROSS        CLOUDY    -2 -15  55 NE6       30.29F WCI -14
MACKINAC ISLAN CLOUDY     0  -8  68 NE12      30.28F WCI -17
NEWBERRY       CLOUDY    -1 -11  64 NE6       30.27F WCI -13
S. S. MARIE    CLOUDY    -1 -16  48 CALM      30.31F
$$
MIZ004>006-011>014-085-012000-
CENTRAL UPPER MICHIGAN

CITY           SKY/WX    TMP DP  RH WIND       PRES   REMARKS
MANISTIQUE     CLOUDY     2 -12  51 N13       30.28F WCI -15
ESCANABA       CLOUDY     9  -2  61 NE10      30.27F WCI  -6
MENOMINEE      CLOUDY     9  -6  52 NE21G28   30.21F WCI -11
SAWYER-GWINN   LGT SNOW   9   3  78 NE13      30.22F VSB 3/4 WCI  -7
$$
MIZ001>003-009>011-084-012000-
WESTERN UPPER MICHIGAN

CITY           SKY/WX    TMP DP  RH WIND       PRES   REMARKS
IRON MOUNTAIN  CLOUDY    11   1  64 NE13      30.19F WCI  -4
HOUGHTON       LGT SNOW   9  -1  64 NE10      30.28F WCI  -5
COPPER HARBOR    N/A     10  -1  61 NE9       30.33F WCI  -3
IRONWOOD       CLOUDY    10   1  67 NE12G18   30.22F WCI  -4
$$

ABBREVIATIONS USED IN REMARKS
   TC - TEMPERATURE IN CELSIUS
  WCI - WIND CHILL INDEX
   HX - HEAT INDEX
  VSB - VISIBILITY



USA.gov is the U.S. government's official web portal to all federal, state and local government web resources and services.